When you browse on this site, cookies collect data to enhance your experience and personalize the content and advertising you see.
Visit our Privacy Policy to learn more. By continuing to use the site, you agree to this use of cookies and data.
  • In Lithuania
  • List of Countries
  • For 7 days
  • Water Temperature
  • Weather Map
  • Weather Widgets
  • user-avatar
    Login

    Hourly Weather Orhei

    Today, 28 March, Saturday

    Time Temperature Precipitation Wind Pressure Humidity
    00:00 +9°C° 0 mm 3 mps 756 mmHg 60%
    01:00 +8°C° 0 mm 3 mps 755 mmHg 61%
    02:00 +8°C° 0 mm 3 mps 755 mmHg 58%
    03:00 +8°C° 0 mm 3 mps 754 mmHg 59%
    04:00 +8°C° 0 mm 3 mps 754 mmHg 61%
    05:00 +7°C° 0 mm 3 mps 754 mmHg 62%
    06:00 +8°C° 0 mm 3 mps 754 mmHg 61%
    07:00 +8°C° 0 mm 3 mps 754 mmHg 61%
    08:00 +9°C° 0 mm 3 mps 753 mmHg 59%
    09:00 +10°C° 0 mm 3 mps 753 mmHg 54%
    10:00 +12°C° 0 mm 3 mps 753 mmHg 50%
    11:00 +13°C° 0 mm 3 mps 753 mmHg 45%
    12:00 +14°C° 0 mm 3 mps 752 mmHg 42%
    13:00 +16°C° 0 mm 3 mps 752 mmHg 39%
    14:00 +17°C° 0 mm 3 mps 751 mmHg 36%
    15:00 +17°C° 0 mm 3 mps 751 mmHg 36%
    16:00 +17°C° 0 mm 3 mps 750 mmHg 37%
    17:00 +17°C° 0 mm 2 mps 750 mmHg 37%
    18:00 +16°C° 0 mm 2 mps 750 mmHg 42%
    19:00 +14°C° 0 mm 2 mps 750 mmHg 47%
    20:00 +12°C° 0 mm 3 mps 750 mmHg 53%
    21:00 +12°C° 0 mm 2 mps 750 mmHg 55%
    22:00 +12°C° 0 mm 2 mps 750 mmHg 58%
    23:00 +10°C° 0 mm 2 mps 750 mmHg 60%

    Tomorrow, 29 March, Sunday

    Time Temperature Precipitation Wind Pressure Humidity
    00:00 +10°C° 0 mm 2 mps 749 mmHg 62%
    01:00 +9°C° 0 mm 2 mps 749 mmHg 64%
    02:00 +9°C° 0 mm 2 mps 749 mmHg 65%
    03:00 +8°C° 0 mm 2 mps 749 mmHg 67%
    04:00 +8°C° 0 mm 2 mps 748 mmHg 69%
    05:00 +7°C° 0 mm 2 mps 748 mmHg 71%
    06:00 +8°C° 0 mm 2 mps 748 mmHg 68%
    07:00 +9°C° 0 mm 3 mps 748 mmHg 66%
    08:00 +10°C° 0 mm 3 mps 748 mmHg 63%
    09:00 +11°C° 0 mm 3 mps 748 mmHg 57%
    10:00 +13°C° 0 mm 4 mps 747 mmHg 50%
    11:00 +15°C° 0 mm 4 mps 747 mmHg 43%
    12:00 +15°C° 0 mm 4 mps 747 mmHg 42%
    13:00 +15°C° 0 mm 5 mps 747 mmHg 41%
    14:00 +16°C° 0 mm 5 mps 746 mmHg 40%
    15:00 +15°C° 0 mm 5 mps 746 mmHg 42%
    16:00 +15°C° 0 mm 5 mps 746 mmHg 43%
    17:00 +15°C° 0 mm 5 mps 746 mmHg 44%
    18:00 +14°C° 0 mm 4 mps 746 mmHg 48%
    19:00 +12°C° 0 mm 3 mps 747 mmHg 52%
    20:00 +11°C° 0 mm 3 mps 747 mmHg 56%
    21:00 +12°C° 0 mm 2 mps 747 mmHg 58%
    22:00 +10°C° 0 mm 2 mps 747 mmHg 60%
    23:00 +10°C° 0 mm 2 mps 747 mmHg 62%

    Day after tomorrow, 30 March, Monday

    Time Temperature Precipitation Wind Pressure Humidity
    00:00 +9°C° 0 mm 2 mps 747 mmHg 65%
    01:00 +9°C° 0 mm 2 mps 747 mmHg 68%
    02:00 +8°C° 0 mm 2 mps 747 mmHg 71%
    03:00 +8°C° 0 mm 2 mps 748 mmHg 73%
    04:00 +8°C° 0 mm 2 mps 748 mmHg 75%
    05:00 +7°C° 0 mm 2 mps 748 mmHg 77%
    06:00 +8°C° 0 mm 3 mps 748 mmHg 73%
    07:00 +9°C° 0 mm 3 mps 748 mmHg 69%
    08:00 +10°C° 0 mm 3 mps 749 mmHg 65%
    09:00 +11°C° 0 mm 4 mps 749 mmHg 58%
    10:00 +13°C° 0 mm 4 mps 749 mmHg 51%
    11:00 +15°C° 0 mm 4 mps 749 mmHg 44%
    12:00 +15°C° 0 mm 4 mps 749 mmHg 41%
    13:00 +17°C° 0 mm 4 mps 749 mmHg 38%
    14:00 +17°C° 0 mm 4 mps 749 mmHg 36%
    15:00 +17°C° 0 mm 4 mps 749 mmHg 40%
    16:00 +15°C° 0 mm 5 mps 749 mmHg 45%
    17:00 +14°C° 0 mm 5 mps 749 mmHg 49%
    18:00 +13°C° 0 mm 5 mps 750 mmHg 55%
    19:00 +10°C° 0 mm 5 mps 751 mmHg 60%
    20:00 +9°C° 0 mm 5 mps 752 mmHg 66%
    21:00 +8°C° 0.2 mm 5 mps 752 mmHg 71%
    22:00 +7°C° 0.2 mm 5 mps 752 mmHg 76%
    23:00 +6°C° 0.2 mm 5 mps 752 mmHg 81%

    31 March, Tuesday

    Time Temperature Precipitation Wind Pressure Humidity
    00:00 +5°C° 0.6 mm 6 mps 753 mmHg 83%
    01:00 +4°C° 0.6 mm 6 mps 753 mmHg 85%
    02:00 +3°C° 0.6 mm 6 mps 753 mmHg 88%
    03:00 +2°C° 0.5 mm 6 mps 753 mmHg 89%
    04:00 +1°C° 0.5 mm 6 mps 753 mmHg 91%
    05:00 -1°C° 0.5 mm 6 mps 754 mmHg 93%
    06:00 -1°C° 0.2 mm 6 mps 754 mmHg 92%
    07:00 -1°C° 0.2 mm 6 mps 754 mmHg 91%
    08:00 -1°C° 0.2 mm 6 mps 755 mmHg 89%
    09:00 -1°C° 0.2 mm 6 mps 755 mmHg 85%
    10:00 +1°C° 0.2 mm 6 mps 755 mmHg 81%
    11:00 +1°C° 0.2 mm 6 mps 756 mmHg 77%
    12:00 +2°C° 0 mm 6 mps 756 mmHg 73%
    13:00 +3°C° 0 mm 6 mps 755 mmHg 70%
    14:00 +3°C° 0 mm 6 mps 755 mmHg 67%
    15:00 +3°C° 0 mm 6 mps 755 mmHg 68%
    16:00 +3°C° 0 mm 5 mps 755 mmHg 69%
    17:00 +3°C° 0 mm 5 mps 755 mmHg 70%
    18:00 +3°C° 0 mm 5 mps 755 mmHg 71%
    19:00 +3°C° 0 mm 4 mps 756 mmHg 73%
    20:00 +3°C° 0 mm 4 mps 756 mmHg 74%
    21:00 +3°C° 0 mm 4 mps 756 mmHg 76%
    22:00 +2°C° 0 mm 3 mps 756 mmHg 79%
    23:00 +2°C° 0 mm 3 mps 756 mmHg 82%

    1 April, Wednesday

    Time Temperature Precipitation Wind Pressure Humidity
    00:00 +1°C° 0 mm 4 mps 756 mmHg 83%
    01:00 +1°C° 0 mm 4 mps 756 mmHg 84%
    02:00 +1°C° 0 mm 4 mps 756 mmHg 85%
    03:00 0°C° 0 mm 4 mps 756 mmHg 83%
    04:00 0°C° 0 mm 4 mps 756 mmHg 81%
    05:00 0°C° 0 mm 4 mps 756 mmHg 79%
    06:00 0°C° 0 mm 4 mps 756 mmHg 75%
    07:00 0°C° 0 mm 5 mps 756 mmHg 70%
    08:00 +1°C° 0 mm 5 mps 756 mmHg 66%
    09:00 +2°C° 0 mm 5 mps 756 mmHg 61%
    10:00 +3°C° 0 mm 5 mps 756 mmHg 57%
    11:00 +5°C° 0 mm 5 mps 756 mmHg 53%
    12:00 +6°C° 0 mm 5 mps 756 mmHg 50%
    13:00 +7°C° 0 mm 5 mps 756 mmHg 46%
    14:00 +7°C° 0 mm 4 mps 756 mmHg 43%
    15:00 +7°C° 0 mm 4 mps 755 mmHg 43%
    16:00 +7°C° 0 mm 4 mps 755 mmHg 44%
    17:00 +7°C° 0 mm 4 mps 755 mmHg 45%
    18:00 +6°C° 0 mm 4 mps 755 mmHg 48%
    19:00 +5°C° 0 mm 3 mps 755 mmHg 51%
    20:00 +4°C° 0 mm 3 mps 755 mmHg 55%
    21:00 +4°C° 0 mm 3 mps 755 mmHg 56%
    22:00 +3°C° 0 mm 3 mps 756 mmHg 57%
    23:00 +4°C° 0 mm 2 mps 756 mmHg 58%

    2 April, Thursday

    Time Temperature Precipitation Wind Pressure Humidity
    00:00 +3°C° 0 mm 2 mps 755 mmHg 58%
    01:00 +3°C° 0 mm 2 mps 755 mmHg 57%
    02:00 +2°C° 0 mm 2 mps 755 mmHg 57%
    03:00 +2°C° 0 mm 2 mps 755 mmHg 57%
    04:00 +2°C° 0 mm 1 mps 755 mmHg 57%
    05:00 +2°C° 0 mm 1 mps 755 mmHg 57%
    06:00 +3°C° 0 mm 1 mps 755 mmHg 52%
    07:00 +3°C° 0 mm 2 mps 755 mmHg 47%
    08:00 +4°C° 0 mm 2 mps 755 mmHg 42%
    09:00 +5°C° 0 mm 2 mps 755 mmHg 38%
    10:00 +7°C° 0 mm 2 mps 755 mmHg 34%
    11:00 +8°C° 0 mm 2 mps 755 mmHg 29%
    12:00 +9°C° 0 mm 2 mps 755 mmHg 29%
    13:00 +9°C° 0 mm 2 mps 755 mmHg 28%
    14:00 +11°C° 0 mm 1 mps 754 mmHg 28%
    15:00 +11°C° 0 mm 1 mps 754 mmHg 28%
    16:00 +11°C° 0 mm 1 mps 754 mmHg 29%
    17:00 +11°C° 0 mm 1 mps 754 mmHg 29%
    18:00 +10°C° 0 mm 1 mps 754 mmHg 33%
    19:00 +9°C° 0 mm 1 mps 754 mmHg 36%
    20:00 +8°C° 0 mm 1 mps 754 mmHg 39%
    21:00 +8°C° 0 mm 1 mps 755 mmHg 41%
    22:00 +7°C° 0 mm 1 mps 755 mmHg 42%
    23:00 +7°C° 0 mm 1 mps 755 mmHg 43%
    Show more